QPF
0.00 0.01 0.00 0.00 0.00 0.00 0.00 0.00 0.00 0.00 0.00 0.00 0.00 0.00 0.00 0.00 0.00 0.00 0.00 0.00 0.00 0.00 0.00 0.00 0.00 0.00 0.00 0.00 0.00 0.00 0.00 0.00 0.00 0.00 0.01 0.03 0.05 0.07 0.08 0.09 0.08 0.07 0.04 0.02
0.00 0.00 0.00 0.00 0.00 0.00 0.00 0.00 0.00 0.00 0.00 0.00 0.00 0.00 0.00 0.00 0.00 0.00 0.00 0.00 0.00 0.00 0.00 0.00 0.00 0.00 0.00 0.00 0.00 0.00 0.00 0.00 0.00 0.00 0.02 0.04 0.07 0.08 0.09 0.09 0.08 0.06 0.04 0.03
0.00 0.00 0.00 0.00 0.00 0.00 0.00 0.00 0.00 0.00 0.00 0.00 0.00 0.00 0.00 0.00 0.00 0.00 0.00 0.00 0.00 0.00 0.00 0.00 0.00 0.00 0.00 0.00 0.00 0.00 0.00 0.00 0.00 0.00 0.01 0.02 0.04 0.06 0.06 0.06 0.06 0.04 0.03 0.02
0.00 0.00 0.00 0.00 0.00 0.00 0.00 0.00 0.00 0.00 0.00 0.00 0.00 0.00 0.00 0.00 0.00 0.00 0.00 0.00 0.00 0.00 0.00 0.00 0.00 0.00 0.00 0.00 0.00 0.00 0.00 0.00 0.00 0.00 0.01 0.02 0.04 0.05 0.05 0.05 0.04 0.03 0.02 0.01
0.00 0.00 0.00 0.00 0.00 0.00 0.00 0.00 0.00 0.00 0.00 0.01 0.00 0.01 0.00 0.00 0.00 0.00 0.00 0.00 0.00 0.00 0.00 0.00 0.00 0.00 0.00 0.00 0.00 0.00 0.00 0.00 0.00 0.00 0.01 0.02 0.04 0.05 0.05 0.03 0.02 0.02 0.01 0.00
0.00 0.00 0.00 0.00 0.00 0.00 0.00 0.00 0.00 0.01 0.02 0.02 0.00 0.00 0.00 0.00 0.00 0.00 0.00 0.00 0.00 0.00 0.00 0.00 0.00 0.00 0.00 0.00 0.00 0.00 0.00 0.00 0.00 0.00 0.01 0.02 0.04 0.05 0.04 0.02 0.02 0.01 0.01 0.00
0.01 0.00 0.00 0.00 0.00 0.00 0.00 0.01 0.01 0.01 0.02 0.01 0.00 0.00 0.00 0.00 0.00 0.00 0.00 0.00 0.00 0.00 0.00 0.00 0.00 0.00 0.00 0.00 0.00 0.00 0.00 0.00 0.00 0.00 0.01 0.02 0.05 0.06 0.04 0.03 0.02 0.01 0.01 0.01
0.01 0.00 0.00 0.00 0.00 0.00 0.00 0.01 0.01 0.00 0.00 0.00 0.00 0.00 0.00 0.00 0.00 0.00 0.00 0.00 0.00 0.00 0.00 0.00 0.00 0.00 0.00 0.00 0.00 0.00 0.00 0.00 0.00 0.00 0.00 0.01 0.03 0.03 0.02 0.02 0.01 0.01 0.01 0.01
0.00 0.00 0.00 0.00 0.00 0.00 0.01 0.01 0.00 0.02 0.02 0.01 0.00 0.00 0.00 0.00 0.00 0.00 0.00 0.00 0.00 0.00 0.00 0.00 0.00 0.00 0.00 0.00 0.00 0.00 0.00 0.00 0.00 0.00 0.00 0.00 0.01 0.01 0.01 0.01 0.00 0.00 0.00 0.00
0.00 0.00 0.00 0.00 0.00 0.00 0.00 0.01 0.03 0.07 0.05 0.02 0.00 0.00 0.00 0.00 0.01 0.01 0.01 0.00 0.00 0.00 0.00 0.00 0.00 0.00 0.00 0.00 0.00 0.00 0.00 0.00 0.00 0.00 0.00 0.00 0.00 0.00 0.00 0.00 0.00 0.00 0.00 0.00
0.00 0.01 0.00 0.00 0.00 0.00 0.01 0.02 0.04 0.06 0.04 0.03 0.01 0.00 0.00 0.01 0.03 0.03 0.02 0.01 0.00 0.00 0.00 0.00 0.00 0.00 0.00 0.00 0.00 0.00 0.00 0.00 0.00 0.00 0.00 0.00 0.00 0.00 0.00 0.00 0.00 0.00 0.00 0.00
0.00 0.01 0.01 0.00 0.00 0.00 0.00 0.01 0.03 0.08 0.04 0.03 0.03 0.01 0.00 0.01 0.03 0.04 0.04 0.02 0.01 0.00 0.00 0.00 0.00 0.00 0.00 0.00 0.00 0.00 0.00 0.00 0.00 0.00 0.00 0.00 0.00 0.00 0.00 0.00 0.00 0.00 0.00 0.00
0.00 0.01 0.01 0.00 0.00 0.01 0.01 0.01 0.02 0.07 0.10 0.07 0.06 0.03 0.01 0.03 0.05 0.06 0.05 0.03 0.01 0.01 0.00 0.00 0.00 0.00 0.00 0.00 0.00 0.00 0.00 0.00 0.00 0.00 0.00 0.00 0.00 0.00 0.00 0.00 0.00 0.00 0.00 0.00
0.01 0.01 0.01 0.00 0.00 0.01 0.02 0.02 0.04 0.13 0.16 0.07 0.03 0.03 0.04 0.07 0.08 0.08 0.06 0.05 0.03 0.02 0.01 0.00 0.00 0.00 0.00 0.00 0.00 0.00 0.00 0.00 0.00 0.00 0.00 0.00 0.00 0.00 0.00 0.00 0.00 0.00 0.00 0.00
0.03 0.03 0.01 0.00 0.01 0.02 0.03 0.04 0.06 0.12 0.11 0.09 0.04 0.04 0.06 0.09 0.10 0.09 0.06 0.05 0.04 0.02 0.01 0.01 0.00 0.00 0.00 0.00 0.00 0.00 0.00 0.00 0.00 0.00 0.00 0.00 0.00 0.00 0.00 0.00 0.00 0.00 0.00 0.00
0.02 0.03 0.02 0.01 0.01 0.03 0.05 0.04 0.05 0.07 0.06 0.07 0.06 0.05 0.04 0.08 0.10 0.08 0.05 0.04 0.03 0.02 0.01 0.01 0.00 0.00 0.00 0.00 0.00 0.00 0.00 0.00 0.00 0.00 0.00 0.00 0.00 0.00 0.00 0.00 0.00 0.00 0.00 0.00
0.02 0.03 0.04 0.02 0.01 0.04 0.06 0.04 0.06 0.07 0.05 0.06 0.07 0.05 0.03 0.04 0.04 0.03 0.03 0.03 0.02 0.02 0.01 0.01 0.01 0.00 0.00 0.00 0.00 0.00 0.00 0.00 0.00 0.00 0.00 0.00 0.00 0.00 0.00 0.00 0.00 0.00 0.00 0.00
0.02 0.03 0.05 0.03 0.03 0.05 0.04 0.04 0.06 0.08 0.06 0.05 0.04 0.02 0.01 0.01 0.01 0.01 0.02 0.02 0.01 0.01 0.01 0.01 0.00 0.00 0.00 0.00 0.00 0.00 0.00 0.00 0.00 0.00 0.00 0.00 0.00 0.00 0.00 0.00 0.00 0.00 0.00 0.00
0.01 0.03 0.06 0.05 0.04 0.03 0.05 0.07 0.07 0.08 0.06 0.04 0.02 0.01 0.01 0.01 0.01 0.01 0.01 0.01 0.01 0.00 0.00 0.00 0.00 0.00 0.00 0.00 0.00 0.00 0.00 0.00 0.00 0.00 0.00 0.00 0.00 0.00 0.00 0.00 0.00 0.00 0.00 0.00
0.02 0.03 0.06 0.05 0.06 0.05 0.06 0.05 0.04 0.07 0.07 0.03 0.02 0.01 0.01 0.01 0.01 0.01 0.01 0.01 0.00 0.00 0.00 0.00 0.00 0.00 0.00 0.00 0.00 0.00 0.00 0.00 0.00 0.00 0.00 0.00 0.00 0.00 0.00 0.00 0.00 0.00 0.00 0.00
0.02 0.03 0.05 0.04 0.05 0.03 0.04 0.03 0.03 0.04 0.05 0.02 0.01 0.00 0.00 0.00 0.00 0.00 0.01 0.01 0.00 0.00 0.00 0.00 0.00 0.00 0.00 0.00 0.00 0.00 0.00 0.00 0.00 0.00 0.00 0.00 0.00 0.00 0.00 0.00 0.00 0.00 0.00 0.00
0.01 0.01 0.01 0.01 0.02 0.02 0.02 0.02 0.02 0.01 0.01 0.01 0.01 0.00 0.00 0.01 0.00 0.00 0.00 0.00 0.00 0.00 0.00 0.00 0.00 0.00 0.00 0.00 0.00 0.00 0.00 0.00 0.00 0.00 0.00 0.00 0.00 0.00 0.00 0.00 0.00 0.00 0.00 0.00
0.00 0.01 0.01 0.00 0.00 0.01 0.01 0.01 0.00 0.00 0.00 0.00 0.00 0.00 0.00 0.00 0.00 0.01 0.01 0.00 0.00 0.00 0.00 0.00 0.00 0.00 0.00 0.00 0.00 0.00 0.00 0.00 0.00 0.00 0.00 0.00 0.00 0.00 0.00 0.00 0.00 0.00 0.00 0.00
0.00 0.00 0.00 0.00 0.00 0.00 0.00 0.01 0.01 0.00 0.00 0.00 0.00 0.00 0.00 0.00 0.00 0.01 0.01 0.00 0.00 0.00 0.00 0.00 0.00 0.00 0.00 0.00 0.00 0.00 0.00 0.00 0.00 0.00 0.00 0.00 0.00 0.00 0.00 0.00 0.00 0.00 0.00 0.00
0.00 0.00 0.00 0.00 0.00 0.00 0.00 0.00 0.00 0.00 0.00 0.00 0.00 0.00 0.00 0.00 0.00 0.00 0.00 0.00 0.00 0.00 0.00 0.00 0.00 0.00 0.00 0.00 0.00 0.00 0.00 0.00 0.00 0.00 0.00 0.00 0.00 0.00 0.00 0.00 0.00 0.00 0.00 0.00
0.00 0.00 0.00 0.00 0.00 0.00 0.00 0.00 0.00 0.00 0.00 0.00 0.00 0.00 0.00 0.00 0.00 0.00 0.00 0.00 0.00 0.00 0.00 0.00 0.00 0.00 0.00 0.00 0.00 0.00 0.00 0.00 0.00 0.00 0.00 0.00 0.00 0.00 0.00 0.00 0.00 0.00 0.00 0.00
MSLP
1014.05 1014.25 1014.45 1014.64 1014.82 1014.95 1014.99 1014.92 1014.69 1014.30 1013.74 1013.04 1012.24 1011.39 1010.54 1009.76 1009.08 1008.51 1008.06 1007.71 1007.44 1007.22 1007.03 1006.87 1006.74 1006.67 1006.68 1006.80 1007.04 1007.41 1007.91 1008.51 1009.18 1009.89 1010.61 1011.33 1012.02 1012.69 1013.34 1013.98 1014.60 1015.22 1015.83 1016.41
1013.95 1014.14 1014.35 1014.60 1014.84 1015.05 1015.17 1015.13 1014.90 1014.44 1013.76 1012.90 1011.90 1010.85 1009.83 1008.91 1008.14 1007.55 1007.12 1006.83 1006.64 1006.50 1006.37 1006.24 1006.12 1006.03 1006.01 1006.10 1006.32 1006.70 1007.24 1007.92 1008.70 1009.54 1010.40 1011.26 1012.08 1012.86 1013.60 1014.31 1014.99 1015.64 1016.26 1016.85
1013.80 1013.99 1014.23 1014.53 1014.85 1015.13 1015.32 1015.32 1015.06 1014.53 1013.72 1012.67 1011.46 1010.20 1008.98 1007.92 1007.06 1006.45 1006.05 1005.84 1005.75 1005.71 1005.66 1005.59 1005.49 1005.40 1005.35 1005.40 1005.61 1006.00 1006.58 1007.33 1008.22 1009.19 1010.19 1011.19 1012.14 1013.04 1013.87 1014.63 1015.35 1016.02 1016.65 1017.23
1013.60 1013.79 1014.07 1014.42 1014.81 1015.18 1015.42 1015.44 1015.16 1014.54 1013.59 1012.35 1010.93 1009.45 1008.05 1006.84 1005.90 1005.26 1004.91 1004.77 1004.79 1004.86 1004.91 1004.91 1004.85 1004.77 1004.71 1004.75 1004.94 1005.34 1005.96 1006.78 1007.76 1008.85 1009.99 1011.11 1012.18 1013.18 1014.08 1014.90 1015.64 1016.32 1016.94 1017.50
1013.37 1013.57 1013.87 1014.27 1014.72 1015.14 1015.43 1015.46 1015.15 1014.45 1013.37 1011.96 1010.35 1008.67 1007.09 1005.74 1004.72 1004.05 1003.73 1003.67 1003.78 1003.96 1004.12 1004.20 1004.20 1004.15 1004.10 1004.14 1004.34 1004.76 1005.42 1006.30 1007.36 1008.55 1009.79 1011.02 1012.19 1013.25 1014.21 1015.07 1015.82 1016.50 1017.11 1017.66
1013.10 1013.31 1013.63 1014.06 1014.54 1015.00 1015.32 1015.36 1015.02 1014.25 1013.06 1011.51 1009.74 1007.90 1006.16 1004.69 1003.59 1002.89 1002.57 1002.56 1002.75 1003.02 1003.28 1003.45 1003.52 1003.53 1003.52 1003.59 1003.82 1004.27 1004.97 1005.91 1007.04 1008.30 1009.62 1010.92 1012.15 1013.27 1014.26 1015.13 1015.90 1016.58 1017.18 1017.72
1012.82 1013.03 1013.35 1013.78 1014.28 1014.75 1015.07 1015.11 1014.75 1013.94 1012.67 1011.03 1009.14 1007.18 1005.32 1003.74 1002.56 1001.80 1001.47 1001.48 1001.72 1002.06 1002.40 1002.66 1002.81 1002.89 1002.96 1003.09 1003.38 1003.88 1004.63 1005.62 1006.81 1008.12 1009.49 1010.83 1012.09 1013.23 1014.24 1015.12 1015.88 1016.56 1017.17 1017.71
1012.52 1012.71 1013.01 1013.43 1013.91 1014.37 1014.69 1014.71 1014.34 1013.51 1012.21 1010.52 1008.57 1006.53 1004.59 1002.93 1001.66 1000.85 1000.47 1000.46 1000.71 1001.09 1001.49 1001.82 1002.07 1002.25 1002.42 1002.65 1003.02 1003.60 1004.42 1005.46 1006.69 1008.03 1009.41 1010.77 1012.03 1013.17 1014.18 1015.05 1015.82 1016.51 1017.13 1017.69
1012.21 1012.37 1012.63 1013.00 1013.45 1013.87 1014.16 1014.17 1013.80 1012.97 1011.67 1009.99 1008.03 1005.97 1003.99 1002.27 1000.94 1000.05 999.61 999.55 999.77 1000.15 1000.58 1000.99 1001.34 1001.63 1001.93 1002.28 1002.77 1003.45 1004.34 1005.44 1006.70 1008.05 1009.43 1010.76 1012.01 1013.13 1014.12 1014.99 1015.77 1016.46 1017.11 1017.70
1011.86 1011.99 1012.20 1012.52 1012.90 1013.27 1013.51 1013.51 1013.13 1012.32 1011.07 1009.43 1007.51 1005.47 1003.50 1001.76 1000.37 999.42 998.90 998.77 998.94 999.30 999.76 1000.23 1000.67 1001.10 1001.53 1002.04 1002.66 1003.46 1004.44 1005.58 1006.86 1008.21 1009.56 1010.86 1012.06 1013.15 1014.12 1014.98 1015.76 1016.48 1017.15 1017.78
1011.49 1011.58 1011.74 1011.98 1012.28 1012.58 1012.76 1012.72 1012.35 1011.57 1010.38 1008.81 1006.98 1005.02 1003.10 1001.37 999.97 998.97 998.39 998.19 998.30 998.64 999.10 999.63 1000.17 1000.73 1001.32 1001.98 1002.75 1003.66 1004.72 1005.91 1007.20 1008.52 1009.83 1011.08 1012.23 1013.28 1014.22 1015.07 1015.85 1016.59 1017.28 1017.94
1011.09 1011.15 1011.25 1011.41 1011.62 1011.82 1011.93 1011.84 1011.46 1010.71 1009.59 1008.13 1006.41 1004.57 1002.74 1001.09 999.72 998.71 998.09 997.85 997.92 998.23 998.71 999.29 999.92 1000.61 1001.34 1002.15 1003.06 1004.08 1005.21 1006.44 1007.72 1009.01 1010.26 1011.44 1012.53 1013.53 1014.43 1015.26 1016.05 1016.79 1017.51 1018.18
1010.70 1010.72 1010.76 1010.83 1010.94 1011.03 1011.04 1010.88 1010.46 1009.74 1008.69 1007.34 1005.77 1004.08 1002.40 1000.87 999.58 998.63 998.03 997.77 997.83 998.14 998.64 999.28 1000.00 1000.79 1001.65 1002.59 1003.60 1004.71 1005.89 1007.13 1008.39 1009.63 1010.82 1011.93 1012.96 1013.90 1014.76 1015.57 1016.34 1017.09 1017.80 1018.47
1010.32 1010.31 1010.28 1010.27 1010.26 1010.22 1010.11 1009.85 1009.38 1008.66 1007.67 1006.44 1005.03 1003.53 1002.05 1000.69 999.56 998.71 998.19 997.98 998.08 998.41 998.95 999.63 1000.43 1001.30 1002.26 1003.28 1004.37 1005.53 1006.73 1007.96 1009.18 1010.36 1011.48 1012.52 1013.48 1014.36 1015.19 1015.96 1016.72 1017.44 1018.14 1018.79
1009.97 1009.93 1009.83 1009.72 1009.58 1009.39 1009.14 1008.76 1008.22 1007.48 1006.55 1005.44 1004.21 1002.92 1001.67 1000.55 999.62 998.95 998.57 998.47 998.63 999.03 999.61 1000.34 1001.19 1002.12 1003.12 1004.19 1005.31 1006.47 1007.66 1008.85 1010.02 1011.14 1012.19 1013.16 1014.06 1014.89 1015.67 1016.41 1017.13 1017.82 1018.48 1019.09
1009.67 1009.57 1009.41 1009.18 1008.90 1008.57 1008.15 1007.65 1007.02 1006.26 1005.37 1004.38 1003.33 1002.28 1001.29 1000.44 999.77 999.33 999.14 999.19 999.46 999.94 1000.57 1001.34 1002.20 1003.15 1004.16 1005.22 1006.32 1007.46 1008.61 1009.74 1010.85 1011.90 1012.89 1013.80 1014.64 1015.43 1016.17 1016.87 1017.55 1018.19 1018.80 1019.34
1009.37 1009.23 1008.98 1008.64 1008.23 1007.74 1007.18 1006.54 1005.82 1005.04 1004.20 1003.33 1002.47 1001.66 1000.95 1000.39 1000.01 999.82 999.85 1000.08 1000.48 1001.04 1001.73 1002.51 1003.37 1004.29 1005.26 1006.28 1007.33 1008.41 1009.49 1010.56 1011.60 1012.59 1013.53 1014.40 1015.20 1015.95 1016.65 1017.31 1017.93 1018.52 1019.06 1019.53
1009.05 1008.84 1008.51 1008.07 1007.53 1006.91 1006.22 1005.48 1004.70 1003.91 1003.13 1002.38 1001.71 1001.14 1000.71 1000.43 1000.34 1000.42 1000.67 1001.07 1001.60 1002.24 1002.96 1003.74 1004.56 1005.43 1006.34 1007.28 1008.25 1009.25 1010.26 1011.26 1012.25 1013.19 1014.09 1014.93 1015.71 1016.43 1017.09 1017.71 1018.28 1018.80 1019.26 1019.65
1008.64 1008.37 1007.97 1007.45 1006.82 1006.10 1005.33 1004.53 1003.72 1002.95 1002.25 1001.64 1001.15 1000.81 1000.63 1000.62 1000.78 1001.10 1001.54 1002.10 1002.73 1003.43 1004.15 1004.91 1005.68 1006.48 1007.30 1008.15 1009.04 1009.95 1010.90 1011.85 1012.79 1013.71 1014.59 1015.41 1016.17 1016.87 1017.50 1018.07 1018.58 1019.02 1019.40 1019.70
1008.09 1007.76 1007.31 1006.74 1006.07 1005.32 1004.53 1003.73 1002.95 1002.25 1001.65 1001.18 1000.87 1000.73 1000.77 1000.98 1001.35 1001.85 1002.44 1003.11 1003.81 1004.53 1005.24 1005.96 1006.67 1007.39 1008.13 1008.90 1009.70 1010.55 1011.44 1012.35 1013.27 1014.18 1015.05 1015.87 1016.62 1017.30 1017.90 1018.41 1018.85 1019.22 1019.50 1019.71
1007.37 1007.00 1006.53 1005.96 1005.31 1004.60 1003.86 1003.13 1002.45 1001.86 1001.39 1001.07 1000.92 1000.96 1001.16 1001.54 1002.05 1002.66 1003.34 1004.06 1004.79 1005.50 1006.19 1006.86 1007.51 1008.16 1008.83 1009.54 1010.29 1011.09 1011.95 1012.84 1013.75 1014.65 1015.52 1016.33 1017.07 1017.72 1018.28 1018.74 1019.11 1019.38 1019.58 1019.69
1006.48 1006.09 1005.64 1005.12 1004.55 1003.95 1003.34 1002.75 1002.23 1001.80 1001.49 1001.33 1001.33 1001.49 1001.82 1002.29 1002.87 1003.53 1004.24 1004.96 1005.67 1006.36 1007.01 1007.63 1008.23 1008.83 1009.46 1010.13 1010.86 1011.64 1012.48 1013.37 1014.27 1015.17 1016.03 1016.83 1017.55 1018.16 1018.67 1019.06 1019.35 1019.54 1019.64 1019.67
1005.46 1005.08 1004.69 1004.27 1003.84 1003.41 1002.99 1002.61 1002.29 1002.06 1001.93 1001.92 1002.05 1002.31 1002.70 1003.21 1003.80 1004.45 1005.13 1005.82 1006.48 1007.12 1007.73 1008.32 1008.89 1009.48 1010.09 1010.75 1011.47 1012.26 1013.10 1013.97 1014.87 1015.75 1016.59 1017.36 1018.04 1018.60 1019.04 1019.36 1019.57 1019.68 1019.70 1019.65
1004.40 1004.06 1003.75 1003.48 1003.23 1003.01 1002.83 1002.69 1002.60 1002.58 1002.63 1002.77 1003.01 1003.34 1003.76 1004.25 1004.81 1005.41 1006.03 1006.65 1007.26 1007.85 1008.42 1008.99 1009.56 1010.15 1010.77 1011.45 1012.18 1012.97 1013.80 1014.67 1015.54 1016.39 1017.19 1017.90 1018.52 1019.01 1019.38 1019.63 1019.76 1019.79 1019.74 1019.63
1003.40 1003.12 1002.92 1002.80 1002.76 1002.77 1002.84 1002.95 1003.10 1003.29 1003.52 1003.79 1004.11 1004.48 1004.90 1005.37 1005.86 1006.39 1006.93 1007.48 1008.04 1008.59 1009.14 1009.71 1010.29 1010.90 1011.55 1012.25 1012.99 1013.78 1014.60 1015.43 1016.26 1017.04 1017.77 1018.41 1018.94 1019.36 1019.65 1019.83 1019.90 1019.87 1019.77 1019.61
1002.57 1002.36 1002.28 1002.31 1002.46 1002.69 1002.98 1003.33 1003.70 1004.08 1004.47 1004.85 1005.25 1005.65 1006.06 1006.48 1006.92 1007.38 1007.85 1008.35 1008.86 1009.39 1009.94 1010.51 1011.12 1011.76 1012.43 1013.14 1013.89 1014.66 1015.44 1016.21 1016.96 1017.66 1018.30 1018.84 1019.28 1019.62 1019.83 1019.95 1019.97 1019.90 1019.78 1019.60
Thickness
5566 5568 5574 5581 5584 5589 5589 5592 5596 5602 5606 5605 5617 5630 5639 5645 5647 5650 5653 5657 5660 5665 5671 5675 5679 5681 5683 5684 5685 5686 5685 5682 5677 5672 5668 5662 5657 5653 5649 5646 5641 5637 5632 5628
5558 5563 5574 5576 5574 5574 5576 5578 5583 5590 5594 5594 5610 5627 5638 5644 5648 5650 5651 5654 5658 5662 5666 5670 5673 5675 5678 5681 5681 5682 5682 5679 5675 5671 5666 5659 5650 5643 5638 5634 5630 5626 5622 5618
5561 5563 5566 5564 5564 5564 5568 5570 5574 5577 5583 5589 5594 5626 5650 5657 5653 5650 5650 5652 5655 5658 5662 5667 5670 5673 5674 5676 5679 5678 5678 5676 5672 5667 5659 5649 5640 5632 5626 5622 5619 5615 5612 5609
5553 5557 5555 5557 5559 5560 5562 5566 5564 5564 5565 5577 5580 5597 5648 5649 5645 5643 5644 5645 5649 5654 5658 5662 5667 5670 5672 5673 5674 5673 5673 5671 5667 5661 5654 5650 5644 5634 5625 5617 5610 5605 5602 5599
5549 5549 5550 5552 5556 5554 5558 5556 5556 5555 5556 5559 5572 5567 5629 5640 5636 5637 5639 5640 5643 5647 5652 5656 5661 5664 5667 5667 5666 5666 5665 5663 5660 5655 5650 5646 5640 5630 5618 5608 5602 5597 5593 5589
5546 5545 5547 5550 5551 5549 5548 5546 5547 5547 5542 5547 5577 5569 5614 5638 5634 5632 5632 5633 5635 5638 5643 5648 5653 5656 5658 5659 5657 5657 5656 5655 5652 5649 5644 5642 5633 5622 5612 5602 5595 5589 5584 5579
5539 5541 5542 5542 5541 5539 5538 5535 5541 5541 5539 5557 5575 5569 5603 5626 5619 5615 5616 5620 5625 5628 5632 5638 5643 5646 5648 5649 5649 5650 5650 5648 5645 5642 5638 5633 5625 5617 5610 5600 5591 5584 5578 5572
5539 5545 5542 5540 5541 5538 5534 5534 5539 5544 5556 5567 5564 5568 5604 5614 5608 5603 5603 5605 5609 5614 5621 5627 5634 5637 5640 5641 5642 5644 5644 5641 5638 5635 5630 5622 5614 5608 5600 5593 5586 5579 5573 5566
5540 5542 5539 5536 5537 5535 5528 5528 5535 5529 5533 5534 5560 5580 5596 5600 5594 5590 5590 5591 5595 5601 5608 5616 5622 5627 5631 5632 5634 5637 5637 5634 5630 5626 5620 5612 5605 5599 5592 5584 5577 5571 5564 5557
5537 5534 5535 5530 5526 5526 5530 5529 5519 5511 5520 5537 5563 5576 5586 5592 5585 5583 5579 5578 5583 5589 5595 5603 5611 5616 5620 5622 5624 5627 5627 5625 5621 5616 5609 5603 5595 5589 5582 5576 5570 5563 5556 5549
5530 5525 5527 5524 5524 5527 5518 5514 5516 5519 5523 5526 5547 5579 5595 5586 5579 5573 5569 5567 5568 5574 5582 5590 5597 5603 5607 5610 5612 5615 5615 5612 5609 5604 5598 5592 5585 5579 5574 5568 5561 5554 5546 5540
5525 5523 5525 5531 5534 5532 5528 5527 5520 5513 5521 5522 5530 5567 5588 5581 5573 5564 5559 5556 5556 5561 5569 5575 5581 5586 5592 5597 5601 5603 5602 5600 5598 5593 5588 5582 5576 5571 5565 5559 5551 5544 5537 5531
5521 5516 5521 5535 5527 5520 5521 5525 5523 5517 5514 5521 5524 5558 5581 5572 5564 5558 5552 5549 5547 5549 5554 5560 5566 5571 5578 5585 5589 5591 5590 5588 5585 5583 5578 5572 5567 5562 5556 5549 5541 5534 5527 5521
5520 5518 5526 5538 5542 5530 5525 5527 5523 5512 5513 5527 5539 5555 5570 5564 5559 5556 5549 5543 5539 5540 5543 5548 5553 5560 5567 5573 5577 5579 5578 5576 5575 5573 5569 5564 5558 5553 5546 5538 5531 5524 5518 5511
5513 5514 5521 5528 5531 5530 5531 5533 5530 5522 5523 5526 5546 5550 5562 5563 5557 5553 5548 5541 5535 5535 5536 5540 5546 5553 5559 5563 5566 5567 5567 5566 5566 5564 5560 5554 5548 5541 5534 5527 5520 5513 5507 5501
5512 5515 5520 5527 5533 5534 5537 5543 5542 5539 5538 5537 5541 5550 5565 5564 5559 5556 5552 5545 5538 5536 5535 5537 5542 5549 5553 5556 5558 5559 5559 5558 5558 5555 5549 5543 5537 5530 5523 5516 5510 5503 5497 5490
5513 5514 5516 5531 5539 5538 5546 5555 5551 5549 5550 5547 5549 5561 5569 5567 5566 5563 5559 5552 5545 5541 5540 5540 5543 5547 5549 5551 5554 5554 5553 5552 5549 5545 5539 5533 5527 5520 5513 5506 5500 5494 5487 5480
5514 5513 5514 5525 5534 5539 5562 5562 5556 5554 5559 5561 5563 5568 5571 5571 5569 5567 5565 5561 5555 5550 5547 5545 5545 5546 5546 5547 5548 5547 5546 5544 5540 5535 5529 5523 5517 5510 5503 5497 5490 5483 5477 5470
5516 5513 5514 5522 5533 5549 5563 5559 5555 5554 5562 5571 5571 5575 5575 5573 5574 5572 5568 5567 5563 5559 5554 5550 5547 5545 5543 5542 5543 5542 5539 5536 5531 5526 5520 5513 5508 5501 5494 5487 5480 5473 5466 5460
5513 5511 5510 5520 5528 5543 5563 5563 5559 5556 5566 5575 5573 5576 5577 5577 5582 5576 5568 5568 5566 5561 5555 5549 5544 5541 5540 5538 5538 5538 5533 5529 5523 5517 5510 5504 5497 5491 5484 5476 5469 5462 5457 5450
5510 5509 5511 5519 5527 5548 5564 5563 5560 5563 5570 5574 5573 5575 5575 5578 5575 5567 5567 5566 5563 5557 5551 5546 5542 5539 5537 5536 5535 5532 5527 5520 5513 5506 5499 5493 5486 5479 5472 5465 5458 5452 5446 5440
5524 5524 5524 5527 5531 5548 5566 5563 5564 5571 5574 5573 5573 5573 5571 5567 5562 5562 5561 5558 5554 5549 5545 5542 5539 5535 5532 5532 5530 5525 5517 5509 5502 5495 5488 5480 5474 5467 5461 5455 5448 5442 5436 5431
5532 5539 5542 5544 5554 5566 5564 5566 5569 5568 5570 5571 5570 5567 5565 5561 5557 5555 5553 5551 5547 5543 5540 5537 5533 5529 5526 5524 5521 5515 5504 5498 5491 5484 5476 5469 5463 5456 5451 5445 5439 5433 5426 5421
5535 5536 5539 5545 5558 5564 5567 5569 5568 5566 5565 5562 5560 5560 5560 5557 5552 5548 5545 5542 5539 5535 5533 5530 5527 5523 5518 5513 5508 5502 5495 5488 5482 5474 5466 5459 5453 5446 5440 5434 5429 5423 5417 5410
5543 5538 5541 5549 5559 5564 5571 5568 5565 5558 5554 5552 5551 5552 5553 5550 5545 5542 5538 5535 5531 5527 5525 5523 5519 5514 5508 5502 5495 5490 5485 5479 5472 5464 5456 5450 5443 5437 5431 5424 5417 5412 5404 5397
5544 5546 5549 5558 5564 5564 5568 5560 5555 5554 5549 5546 5544 5542 5541 5541 5537 5534 5530 5526 5523 5519 5516 5513 5508 5503 5497 5491 5485 5479 5474 5470 5464 5455 5447 5440 5434 5427 5421 5415 5408 5398 5392 5385